SQ7FZR-13 Weather Reports


time (UTC)temp
F
wind
direction
speed
knots
gust
knots
rain 1hr
in
rain 24hr
in
rain mn
in
humidity
%
barometer
mb
20260506134941 83 181 4.3 7.8 0.00 0.00 0.00 35 1006.7
20260506134242 82 181 1.7 7.8 0.00 0.00 0.00 35 1006.8
20260506133541 82 181 0.0 1.7 0.00 0.00 0.00 35 1006.8
20260506132841 82 45 0.9 2.6 0.00 0.00 0.00 35 1006.7
20260506132141 83 24 1.7 3.5 0.00 0.00 0.00 35 1006.7
20260506131441 82 182 3.5 7.0 0.00 0.00 0.00 35 1006.7
20260506130741 81 172 4.3 7.0 0.00 0.00 0.00 36 1006.5
20260506130041 81 73 2.6 7.0 0.00 0.00 0.00 36 1006.7
20260506125341 81 140 0.9 3.5 0.00 0.00 0.00 36 1006.7
20260506124641 82 197 3.5 7.0 0.00 0.00 0.00 36 1006.7
20260506123241 79 197 1.7 3.5 0.00 0.00 0.00 38 1006.8
20260506121841 81 189 5.2 7.8 0.00 0.00 0.00 36 1006.8
20260506121141 82 185 4.3 7.8 0.00 0.00 0.00 36 1006.9
20260506120441 82 174 3.5 10.4 0.00 0.00 0.00 36 1006.7
20260506115741 81 166 3.5 10.4 0.00 0.00 0.00 36 1006.8
20260506115041 80 203 0.0 0.0 0.00 0.00 0.00 36 1006.7
20260506114341 80 191 1.7 5.2 0.00 0.00 0.00 36 1006.7
20260506113641 81 201 4.3 5.2 0.00 0.00 0.00 36 1006.7
20260506112941 81 170 4.3 7.0 0.00 0.00 0.00 36 1006.7
20260506112241 81 177 6.1 8.7 0.00 0.00 0.00 36 1006.6
20260506111541 81 191 3.5 8.7 0.00 0.00 0.00 36 1006.6
20260506110841 80 181 2.6 6.1 0.00 0.00 0.00 36 1006.4
20260506110141 80 181 1.7 4.3 0.00 0.00 0.00 36 1006.4
20260506105441 79 181 3.5 4.3 0.00 0.00 0.00 37 1006.9
20260506104741 77 182 3.5 4.3 0.00 0.00 0.00 38 1006.5
20260506104041 77 163 4.3 7.8 0.00 0.00 0.00 38 1006.6
20260506103341 76 132 4.3 7.8 0.00 0.00 0.00 38 1006.6
20260506102642 76 172 2.6 6.1 0.00 0.00 0.00 38 1006.8
20260506101941 76 171 1.7 6.1 0.00 0.00 0.00 38 1006.6
20260506100541 75 189 5.2 7.0 0.00 0.00 0.00 38 1006.5
20260506095841 75 174 6.1 9.6 0.00 0.00 0.00 39 1006.6
20260506095141 74 181 2.6 9.6 0.00 0.00 0.00 38 1006.6
20260506093741 74 188 2.6 5.2 0.00 0.00 0.00 38 1006.7
20260506092341 74 182 4.3 7.8 0.00 0.00 0.00 38 1006.6
20260506091641 74 192 4.3 7.8 0.00 0.00 0.00 39 1006.6
20260506090940 73 201 2.6 5.2 0.00 0.00 0.00 39 1006.6
20260506085541 73 168 0.9 1.7 0.00 0.00 0.00 39 1006.6
20260506084841 73 156 0.0 4.3 0.00 0.00 0.00 40 1006.6
20260506084141 72 151 2.6 4.3 0.00 0.00 0.00 40 1006.7
20260506083441 72 136 0.9 4.3 0.00 0.00 0.00 40 1006.6
20260506082740 71 181 2.6 5.2 0.00 0.00 0.00 41 1006.5
20260506082040 71 188 4.3 7.0 0.00 0.00 0.00 41 1006.5
20260506081341 71 181 3.5 7.0 0.00 0.00 0.00 42 1006.4
20260506080640 70 181 0.9 3.5 0.00 0.00 0.00 43 1006.4
20260506073140 69 172 0.9 2.6 0.00 0.00 0.00 44 1006.8
20260506072440 69 181 0.9 2.6 0.00 0.00 0.00 44 1006.8
20260506071740 68 175 2.6 5.2 0.00 0.00 0.00 44 1006.8
20260506071040 68 165 2.6 5.2 0.00 0.00 0.00 45 1006.8
20260506070341 67 181 0.9 3.5 0.00 0.00 0.00 45 1006.8
20260506062140 64 0 0.0 0.0 0.00 0.00 0.00 48 1007.0
20260506061440 64 0 0.0 0.0 0.00 0.00 0.00 48 1006.9
20260506060740 63 0 0.0 0.0 0.00 0.00 0.00 49 1006.9
20260506051140 59 0 0.0 0.0 0.00 0.00 0.00 54 1006.9
20260506050440 58 0 0.0 0.0 0.00 0.00 0.00 55 1006.9
20260506045040 57 0 0.0 0.0 0.00 0.00 0.00 57 1007.2
20260506044340 57 0 0.0 0.0 0.00 0.00 0.00 58 1007.2
20260506042940 56 0 0.0 0.0 0.00 0.00 0.00 60 1007.3
20260506041541 55 0 0.0 0.0 0.00 0.00 0.00 61 1007.3
20260506040840 54 0 0.0 0.0 0.00 0.00 0.00 61 1007.1
20260506035544 54 0 0.0 0.0 0.00 0.00 0.00 61 1007.3
20260506034843 54 0 0.0 0.0 0.00 0.00 0.00 61 1007.2
20260506034144 54 0 0.0 0.0 0.00 0.00 0.00 61 1007.2
20260506033443 54 0 0.0 0.0 0.00 0.00 0.00 61 1007.3
20260506032043 54 0 0.0 0.0 0.00 0.00 0.00 60 1007.1
20260506031343 54 0 0.0 0.0 0.00 0.00 0.00 60 1007.2
20260506030643 55 0 0.0 0.0 0.00 0.00 0.00 59 1007.3
20260506025943 55 0 0.0 0.0 0.00 0.00 0.00 59 1007.3
20260506024543 55 0 0.0 0.0 0.00 0.00 0.00 59 1007.2
20260506023143 56 0 0.0 0.0 0.00 0.00 0.00 58 1007.2
20260506022443 56 0 0.0 0.0 0.00 0.00 0.00 58 1007.3
20260506021743 56 0 0.0 0.0 0.00 0.00 0.00 57 1007.3
20260506021043 56 0 0.0 0.0 0.00 0.00 0.00 57 1007.3
20260506020343 56 0 0.0 0.0 0.00 0.00 0.00 57 1007.3
20260506015643 56 0 0.0 0.0 0.00 0.00 0.00 56 1007.4
20260506014943 56 0 0.0 0.0 0.00 0.00 0.00 55 1007.4
20260506013543 57 0 0.0 0.0 0.00 0.00 0.00 54 1007.5
20260506012843 57 0 0.0 0.0 0.00 0.00 0.00 54 1007.6
20260506012143 57 0 0.0 0.0 0.00 0.00 0.00 53 1007.5
20260506010743 58 0 0.0 0.0 0.00 0.00 0.00 52 1007.3
20260506010043 59 0 0.0 0.0 0.00 0.00 0.00 51 1007.3
20260506004643 59 0 0.0 0.0 0.00 0.00 0.00 50 1007.3
20260506003943 59 0 0.0 0.0 0.00 0.00 0.00 49 1007.4
20260506003243 60 0 0.0 0.0 0.00 0.00 0.00 49 1007.3
20260506002543 60 0 0.0 0.0 0.00 0.00 0.00 48 1007.4
20260506001843 61 0 0.0 0.0 0.00 0.00 0.00 47 1007.4
20260506001143 61 0 0.0 0.0 0.00 0.00 0.00 47 1007.3
20260506000445 61 181 0.9 1.7 0.00 0.00 0.00 46 1007.4
20260505235743 61 181 0.9 1.7 0.00 0.00 0.00 46 1007.5
20260505235043 61 181 0.0 0.9 0.00 0.00 0.00 46 1007.6
20260505234343 61 181 0.0 0.9 0.00 0.00 0.00 46 1007.6
20260505233643 61 0 0.0 0.0 0.00 0.00 0.00 46 1007.4
20260505232943 61 0 0.0 0.0 0.00 0.00 0.00 46 1007.5
20260505232243 62 181 0.0 1.7 0.00 0.00 0.00 46 1007.6
20260505231543 62 181 0.9 3.5 0.00 0.00 0.00 45 1007.4
20260505230843 62 0 0.0 0.0 0.00 0.00 0.00 45 1007.4
20260505230143 62 0 0.0 0.0 0.00 0.00 0.00 45 1007.5
20260505225443 63 0 0.0 0.0 0.00 0.00 0.00 45 1007.5
20260505224043 63 181 0.0 1.7 0.00 0.00 0.00 44 1007.5
20260505223343 63 0 0.0 0.0 0.00 0.00 0.00 44 1007.5
20260505222643 63 0 0.0 0.0 0.00 0.00 0.00 44 1007.5
20260505215843 64 0 0.0 0.0 0.00 0.00 0.00 43 1007.6
20260505215143 64 0 0.0 0.0 0.00 0.00 0.00 42 1007.6
20260505214443 65 0 0.0 0.0 0.00 0.00 0.00 42 1007.5
20260505213743 65 0 0.0 0.0 0.00 0.00 0.00 42 1007.5
20260505212343 65 0 0.0 0.0 0.00 0.00 0.00 41 1007.6
20260505211643 65 0 0.0 0.0 0.00 0.00 0.00 41 1007.6
20260505210943 65 181 0.0 2.6 0.00 0.00 0.00 41 1007.4
20260505205543 65 0 0.0 0.0 0.00 0.00 0.00 41 1007.4
20260505204843 65 0 0.0 0.0 0.00 0.00 0.00 42 1007.3
20260505203443 65 0 0.0 0.0 0.00 0.00 0.00 43 1007.4
20260505202743 65 0 0.0 0.0 0.00 0.00 0.00 43 1007.4
20260505201343 65 0 0.0 0.0 0.00 0.00 0.00 44 1007.3
20260505200642 65 0 0.0 0.0 0.00 0.00 0.00 44 1007.3
20260505195942 66 0 0.0 0.0 0.00 0.00 0.00 43 1007.2
20260505195242 66 0 0.0 0.0 0.00 0.00 0.00 41 1007.2
20260505194543 66 0 0.0 0.0 0.00 0.00 0.00 42 1007.1
20260505193842 67 0 0.0 0.0 0.00 0.00 0.00 41 1007.2
20260505193142 67 0 0.0 0.0 0.00 0.00 0.00 40 1007.3
20260505192442 68 0 0.0 0.0 0.00 0.00 0.00 41 1007.2
20260505191743 68 0 0.0 0.0 0.00 0.00 0.00 39 1007.2
20260505191042 68 0 0.0 0.0 0.00 0.00 0.00 38 1007.2
20260505190342 69 0 0.0 0.0 0.00 0.00 0.00 38 1007.3
20260505185643 69 0 0.0 0.0 0.00 0.00 0.00 36 1007.4
20260505184942 70 0 0.0 0.0 0.00 0.00 0.00 36 1007.2
20260505184242 70 0 0.0 0.0 0.00 0.00 0.00 35 1007.2
20260505183543 71 0 0.0 0.0 0.00 0.00 0.00 35 1007.3
20260505182842 71 0 0.0 0.0 0.00 0.00 0.00 35 1007.3
20260505182142 72 0 0.0 0.0 0.00 0.00 0.00 34 1007.2
20260505181443 73 0 0.0 0.0 0.00 0.00 0.00 33 1007.2
20260505180742 73 0 0.0 0.0 0.00 0.00 0.00 33 1007.2
20260505180042 74 0 0.0 0.0 0.00 0.00 0.00 33 1007.2
20260505175342 74 0 0.0 0.0 0.00 0.00 0.00 32 1007.2
20260505174642 75 0 0.0 0.0 0.00 0.00 0.00 31 1007.2
20260505173942 76 0 0.0 0.0 0.00 0.00 0.00 31 1007.3
20260505173242 76 0 0.0 0.0 0.00 0.00 0.00 31 1007.2
20260505172542 77 0 0.0 0.0 0.00 0.00 0.00 31 1007.1
20260505171842 77 0 0.0 0.0 0.00 0.00 0.00 30 1007.3
20260505171142 77 0 0.0 0.0 0.00 0.00 0.00 30 1007.0
20260505170442 78 0 0.0 0.0 0.00 0.00 0.00 30 1007.2
20260505165742 78 0 0.0 0.0 0.00 0.00 0.00 29 1007.2
20260505164342 78 0 0.0 0.0 0.00 0.00 0.00 28 1007.2
20260505163642 79 0 0.0 0.0 0.00 0.00 0.00 27 1007.3
20260505162942 79 0 0.0 0.0 0.00 0.00 0.00 27 1007.3
20260505161542 79 0 0.0 0.0 0.00 0.00 0.00 26 1007.5
20260505160842 80 0 0.0 0.0 0.00 0.00 0.00 24 1007.6
20260505160142 80 181 0.9 3.5 0.00 0.00 0.00 24 1007.8
20260505153342 83 181 0.0 0.9 0.00 0.00 0.00 21 1007.8
20260505152642 84 0 0.0 0.0 0.00 0.00 0.00 21 1008.0
20260505151942 85 0 0.0 0.0 0.00 0.00 0.00 21 1008.0
20260505151242 86 181 0.9 2.6 0.00 0.00 0.00 21 1008.0
20260505150542 85 181 1.7 2.6 0.00 0.00 0.00 21 1008.1